Regional Weather Roundup
Issued by NWS

Home | Current Version | Previous Version | Text Only | Print | Product List | Glossary Off
Versions: 1 2 3 4 5 6 7 8 9 10 11 12 13 14 15 16 17 18 19 20 21 22 23 24 25 26 27 28 29 30 31 32 33 34 35 36 37 38 39 40 41 42 43 44 45 46 47 48 49 50

000
ASUS43 KMKX 281521
RWRWI

WISCONSIN REGIONAL WEATHER ROUNDUP
NATIONAL WEATHER SERVICE MILWAUKEE/SULLIVAN WI
900 AM CST FRI NOV 28 2014

NOTE: "FAIR" INDICATES FEW OR NO CLOUDS BELOW 12,000 FEET WITH NO
SIGNIFICANT WEATHER AND/OR OBSTRUCTIONS TO VISIBILITY.

WIZ001-002-006>008-014>016-023>028-281600-
NORTHWEST WISCONSIN

CITY           SKY/WX    TMP DP  RH WIND       PRES   REMARKS
SUPERIOR ARPT  LGT SNOW  11   8  88 CALM      30.08R
ASHLAND        LGT SNOW  10   6  84 E3        30.09F FOG
HAYWARD        CLOUDY    10   5  80 SE6       30.02F WCI   0
SIREN          CLOUDY    12   7  79 SE3       30.04R
CUMBERLAND     FLURRIES  10   7  85 SE8       30.01F WCI  -1
RICE LAKE      FLURRIES  12   8  83 SE9       30.04F WCI  -1
CHETEK         CLOUDY    12   7  83 E7        30.03F WCI   1
LADYSMITH      CLOUDY    12   8  83 E7        30.05F WCI   1
EAU CLAIRE     CLOUDY    13   8  81 SE7       30.04F WCI   3
MENOMONIE      CLOUDY    15   9  80 E8        30.04F WCI   3
NEW RICHMOND   CLOUDY    13   8  81 SE8       30.00F WCI   2
OSCEOLA        CLOUDY    13   9  82 E9        30.04S WCI   1
$$

WIZ003>005-009-010-017-018-281600-
NORTH CENTRAL WISCONSIN

CITY           SKY/WX    TMP DP  RH WIND       PRES   REMARKS
MANITOWISH WTR LGT SNOW   6   3  85 S7        30.03F WCI  -5
ARBOR VITAE    LGT SNOW  11   7  84 SE5       30.04F WCI   3
WOODRUFF       LGT SNOW  11   7  84 SE5       30.04F WCI   3
RHINELANDER    LGT SNOW   7   4  87 SE6       30.05F FOG     WCI  -3
EAGLE RIVER    LGT SNOW   8   2  78 CALM      30.05F
LAND O LAKES   LGT SNOW   8   4  84 CALM      30.06F
PHILLIPS       FLURRIES   8   5  86 SE6       30.03F WCI  -2
TOMAHAWK       LGT SNOW   8   5  86 CALM      30.06F
MEDFORD        FLURRIES  10   5  83 SE8       30.04F WCI  -3
MERRILL        CLOUDY     9   6  86 SE6       30.08F WCI   0
$$

WIZ029-030-035-036-043>047-281600-
CENTRAL WISCONSIN

CITY           SKY/WX    TMP DP  RH WIND       PRES   REMARKS
WAUSAU         CLOUDY    10   5  80 SE8       30.09F WCI  -2
MOSINEE        CLOUDY    10   9  92 SE8       30.10F WCI  -1
MARSHFIELD     CLOUDY    12   7  80 SE10      30.07F WCI  -1
STEVENS POINT  CLOUDY     9   6  87 SE7       30.12F WCI  -2
WAUPACA        CLOUDY    15  10  80 SE6       30.17F WCI   7
WAUTOMA        CLOUDY    15  11  84 SE7       30.16F WCI   5
WISC RAPIDS    CLOUDY    12   7  80 SE9       30.12F WCI   0
CAMP DOUGLAS   CLOUDY    15  14  93 SE13      30.09F WCI   2
$$

WIZ011>013-019>022-031-037>040-048>050-281600-
NORTHEAST WISCONSIN

CITY           SKY/WX    TMP DP  RH WIND       PRES   REMARKS
ANTIGO         LGT SNOW   7   4  88 SE8       30.09F WCI  -6
SHAWANO        CLOUDY    13   9  82 CALM      30.19S
OCONTO         CLOUDY    12   7  79 CALM      30.21S
STURGEON BAY   CLOUDY    14   3  62 S7        30.20S WCI   4
GREEN BAY      LGT SNOW  14  11  87 S6        30.20F FOG     WCI   5
MANITOWOC      LGT SNOW  17  13  84 SW7       30.21F FOG     WCI   8
APPLETON       CLOUDY    16  10  79 S8        30.17F WCI   5
CLINTONVILLE   LGT SNOW  12   9  85 SE5       30.17F WCI   4
OSHKOSH        LGT SNOW  16  11  80 MISG      30.18S
$$

WIZ032>034-041-042-053>061-281600-
SOUTHWEST WISCONSIN

CITY           SKY/WX    TMP DP  RH WIND       PRES   REMARKS
LA CROSSE      MOSUNNY   19  10  68 SE9       30.07F WCI   8
SPARTA         CLOUDY    18  11  76 SE7       30.07F WCI   8
VIROQUA        PTSUNNY   16  10  78 SE14      30.02F WCI   2
BOSCOBEL       MOSUNNY   20   9  62 VRB6      30.10F WCI  12
PRAIRIE DU CHI MOSUNNY   19   8  63 E7        30.08F WCI  10
PLATTEVILLE    PTSUNNY   18  10  72 SE14G21   30.07F WCI   4
$$

WIZ056-057-062-063-064-067-068-281600-
SOUTH CENTRAL WISCONSIN

CITY           SKY/WX    TMP DP  RH WIND       PRES   REMARKS
REEDSBURG      CLOUDY    17  11  77 SE6       30.11S WCI   8
BARABOO/DELLS  CLOUDY    17  10  76 SE8       30.11S WCI   6
LONE ROCK      PTSUNNY   21   9  59 SE12      30.12F WCI   9
MINERAL POINT  CLOUDY    19  12  73 SE16      30.06F WCI   5
MADISON        CLOUDY    18  11  74 S15       30.14F WCI   4
MIDDLETON      PTSUNNY   19  11  70 S10       30.13F WCI   8
WATERTOWN      CLOUDY    17  14  87 SE8       30.16F WCI   7
MONROE         PTSUNNY   19  14  79 SE16G23   30.11F WCI   5
JANESVILLE     CLOUDY    19  12  73 SE12G17   30.17F WCI   7
$$

WIZ051-052-058>065-066-070>072-281600-
SOUTHEAST WISCONSIN

CITY           SKY/WX    TMP DP  RH WIND       PRES   REMARKS
MILWAUKEE      FLURRIES  19  14  81 S8        30.20F WCI   9
WAUKESHA       LGT SNOW  16  12  86 SE8       30.19F WCI   5
MILWAUKEE/TIMM LGT SNOW  18  12  79 SE9       30.21F WCI   6
RACINE         LGT SNOW  20  14  77 S10       30.23F WCI   9
BURLINGTON     PTSUNNY   18  13  84 S9        30.19F WCI   6
KENOSHA        CLOUDY    20  16  84 S9        30.21F WCI   9
FOND DU LAC    FLURRIES  17  11  77 S10       30.18F WCI   5
SHEBOYGAN      LGT SNOW  16  12  84 S7        30.20F FOG     WCI   6
WEST BEND      LGT SNOW  18  12  79 S6        30.18F WCI   9
JUNEAU         CLOUDY    16  13  86 SE10      30.18S WCI   4
$$

LSZ147-162-281600-
LAKE SUPERIOR

STATION/POSITION TIME  TEMP    WIND        PRES    WAVE
                       AIR SEA DIR/SP/G            HT/PER
                 (UTC) (F)     (DEG/KT/KT) (MB)    (FT/S)
DEVILS ISLAND    1500   15     180/  2/  3 1020.8F
PORT WING        1400   11     120/  3/  5 1019.3F
SAXON HARBOR     1400   11        CALM     1020.0S
$$

LMZ867-665-643>646-281600-
LAKE MICHIGAN

STATION/POSITION TIME  TEMP    WIND        PRES    WAVE
                       AIR SEA DIR/SP/G            HT/PER
                 (UTC) (F)     (DEG/KT/KT) (MB)    (FT/S)
CHAMBERS ISLAND  1400   17     200/  5/  8 1023.0F
N MID LAKE BUOY  1450   23 42  250/ 10/ 12 1023.5F   1/ 3
NORTHPORT PIER   1417   17      CALM  /  7 1023.0F
SISTER BAY       1413          220/  8/ 10   N/A
KEWAUNEE LAKESHO 1500   15     240/  8/ 11 1022.3F
SHEBOYGAN LAKESH 1500   18 34  210/  9/ 10 1024.3F
PORT WASHINGTON  1440   19     210/  6/ 10 1024.0F
MILWAUKEE LAKESH 1500   20     190/ 12/ 14   N/A
S MID LAKE BUOY  1450   26 42  190/ 16/ 17 1025.1F   2/ 3
KENOSHA   LAKESH 1500   20     190/ 12/ 14 1023.0F
$$

TC  - TEMPERATURE IN CELSIUS
VSB - VISIBILITY IN STATUTE MILES
WCI - WIND CHILL INDEX
HX  - HEAT INDEX




USA.gov is the U.S. government's official web portal to all federal, state and local government web resources and services.